TimeCST,TemperatureF,Dew PointF,Humidity,Sea Level PressureIn,VisibilityMPH,Wind Direction,Wind SpeedMPH,Gust SpeedMPH,PrecipitationIn,Events,Conditions,WindDirDegrees,DateUTC
1:53 AM,32.0,23.0,69,30.19,10.0,NNW,9.2,-,N/A,,Overcast,330,2013-03-02 07:53:00
2:53 AM,32.0,23.0,69,30.18,10.0,NW,8.1,-,N/A,,Overcast,320,2013-03-02 08:53:00
3:18 AM,32.0,24.8,75,30.16,10.0,NW,8.1,-,N/A,,Overcast,320,2013-03-02 09:18:00
3:53 AM,32.0,24.1,73,30.17,10.0,NNW,11.5,-,N/A,,Overcast,330,2013-03-02 09:53:00
4:00 AM,32.0,24.8,75,30.15,10.0,NNW,13.8,-,N/A,,Overcast,330,2013-03-02 10:00:00
4:19 AM,32.0,24.8,75,30.16,10.0,NNW,10.4,-,N/A,,Overcast,330,2013-03-02 10:19:00
4:53 AM,32.0,23.0,69,30.18,10.0,NNW,11.5,-,N/A,,Overcast,330,2013-03-02 10:53:00
5:53 AM,32.0,21.9,66,30.19,10.0,NNW,11.5,-,N/A,,Overcast,340,2013-03-02 11:53:00
6:18 AM,30.2,21.2,69,30.18,10.0,NNW,15.0,-,N/A,,Overcast,330,2013-03-02 12:18:00
6:53 AM,30.9,21.0,67,30.22,10.0,NNW,8.1,-,N/A,,Mostly Cloudy,330,2013-03-02 12:53:00
7:09 AM,30.2,21.2,69,30.20,10.0,NW,8.1,-,N/A,,Mostly Cloudy,320,2013-03-02 13:09:00
7:35 AM,30.2,21.2,69,30.21,10.0,NW,10.4,-,N/A,,Scattered Clouds,320,2013-03-02 13:35:00
7:53 AM,30.0,21.9,72,30.24,10.0,NW,10.4,-,N/A,,Scattered Clouds,320,2013-03-02 13:53:00
8:27 AM,30.2,23.0,75,30.22,10.0,NNW,10.4,-,N/A,,Overcast,330,2013-03-02 14:27:00
8:53 AM,30.9,21.9,69,30.25,10.0,NNW,12.7,-,N/A,,Overcast,340,2013-03-02 14:53:00
9:46 AM,33.8,23.0,65,30.23,10.0,NNW,15.0,21.9,N/A,,Overcast,340,2013-03-02 15:46:00
9:53 AM,32.0,21.9,66,30.25,10.0,North,17.3,21.9,N/A,,Overcast,350,2013-03-02 15:53:00
10:53 AM,32.0,21.9,66,30.26,10.0,NNW,11.5,-,N/A,,Overcast,340,2013-03-02 16:53:00
11:53 AM,34.0,21.9,61,30.25,10.0,North,16.1,-,N/A,,Overcast,350,2013-03-02 17:53:00
12:53 PM,33.1,19.9,59,30.24,10.0,North,16.1,-,N/A,,Overcast,350,2013-03-02 18:53:00
1:53 PM,35.1,19.0,52,30.23,10.0,North,12.7,-,N/A,,Overcast,10,2013-03-02 19:53:00
2:53 PM,36.0,21.0,55,30.24,10.0,NNW,9.2,-,N/A,,Overcast,340,2013-03-02 20:53:00
3:53 PM,35.1,19.9,54,30.23,10.0,NNW,8.1,-,N/A,,Mostly Cloudy,340,2013-03-02 21:53:00
4:53 PM,36.0,21.0,55,30.24,10.0,North,10.4,-,N/A,,Overcast,10,2013-03-02 22:53:00
5:53 PM,34.0,19.0,54,30.25,10.0,North,8.1,-,N/A,,Mostly Cloudy,360,2013-03-02 23:53:00
6:53 PM,32.0,21.0,64,30.26,10.0,NNW,3.5,-,N/A,,Mostly Cloudy,340,2013-03-03 00:53:00
7:53 PM,30.0,19.0,64,30.27,10.0,NW,3.5,-,N/A,,Clear,320,2013-03-03 01:53:00
8:53 PM,28.0,21.0,75,30.27,10.0,Calm,Calm,-,N/A,,Clear,0,2013-03-03 02:53:00
9:53 PM,28.0,21.0,75,30.27,10.0,Calm,Calm,-,N/A,,Clear,0,2013-03-03 03:53:00
10:53 PM,27.0,19.9,75,30.26,10.0,Calm,Calm,-,N/A,,Clear,0,2013-03-03 04:53:00
11:53 PM,26.1,21.0,81,30.25,10.0,Calm,Calm,-,N/A,,Clear,0,2013-03-03 05:53:00